User: anonymous   Login
Location: El Corozo
(10.5833°N, 66.9667°W)
Time: 23:47:08
(UTC+00:00)
Language:

CSL-04 DEB - Orbit

View from above orbital plane
View from above orbital plane
View from above satellite
View from above satellite

Ground track
Ground track

The orbit data is extracted from the following two-line orbital elements,

1 26121U 99057H   24204.42038934  .00015708  00000-0  10555-2 0  9996
2 26121  98.7169 186.9075 0050357  16.0620 344.2186 15.05840307321327
Epoch (UTC): 22 July 2024 10:05:21
Eccentricity: 0.0050357
inclination: 98.7169°
perigee height: 514 km
apogee height: 584 km
right ascension of ascending node: 186.9075°
argument of perigee: 16.0620°
revolutions per day: 15.05840307
mean anomaly at epoch: 344.2186°
orbit number at epoch: 32132

The dashed part of the orbit path shows where the satellite is in the earth's shadow,  

DLR